User: anonymous   Login
Location: eljas
(40.1958°N, 6.8661°W)
Time: 21:19:38
(UTC+02:00)
Language:

Okean O Rocket - Orbit

View from above orbital plane
View from above orbital plane
View from above satellite
View from above satellite

Ground track
Ground track

The orbit data is extracted from the following two-line orbital elements,

1 25861U 99039B   18170.93996841 +.00000021 +00000-0 +10357-4 0  9991
2 25861 098.1518 150.8183 0015271 343.4988 072.1376 14.78482737019970
Epoch (UTC): 19 June 2018 22:33:33
Eccentricity: 0.0015271
inclination: 98.1518°
perigee height: 623 km
apogee height: 645 km
right ascension of ascending node: 150.8183°
argument of perigee: 343.4988°
revolutions per day: 14.78482737
mean anomaly at epoch: 72.1376°
orbit number at epoch: 1997

The dashed part of the orbit path shows where the satellite is in the earth's shadow,  

DLR